Change the Weather History Date:

Friday, August 23, 2013

  Actual Average Record
Temperature  
Mean Temperature 78 °F -  
Max Temperature 81 °F 73 °F 89 °F (1998)
Min Temperature 75 °F 64 °F 68 °F (1996)
Cooling Degree Days 13    
Growing Degree Days 28 (Base 50)    
Moisture  
Dew Point 69 °F    
Average Humidity 73    
Maximum Humidity 78    
Minimum Humidity 63    
Precipitation  
Precipitation 0.00 in - - ()
Sea Level Pressure  
Sea Level Pressure 29.84 in    
Wind  
Wind Speed 3 mph ()    
Max Wind Speed 8 mph    
Max Gust Speed 16 mph    
Visibility 6.7 miles    
Events      
Averages and records for this station are not official NWS values.
T = Trace of Precipitation, MM = Missing Value Source: Averaged Metar Reports

Daily Weather History Graph

Daily Weather History Graph

Search for Another Location

Airport or City:

Trip Planner

Search our weather history database for the weather conditions in past years. The results will help you decide how hot, cold, wet, or windy it might be!

Date:

Astronomy

Aug. 23, 2013 Rise Set
Actual Time 5:38 AM EEST 7:07 PM EEST
Civil Twilight 5:09 AM EEST 7:36 PM EEST
Nautical Twilight 4:34 AM EEST 8:11 PM EEST
Astronomical Twilight 3:57 AM EEST 8:47 PM EEST
Moon 8:12 PM EEST (8/23) 8:11 AM EEST (8/23)
Length of Visible Light 14h 26m
Length of Day
13h 29m
Waning Gibbous, 93% of the Moon is Illuminated
Aug 23
Waning Gibbous
Aug 28
Last Quarter
Sep 5
New
Sep 12
First Quarter
Sep 19
Full

Hourly Weather History & Observations

Time (EEST) Temp. Heat Index Dew Point Humidity Pressure Visibility Wind Dir Wind Speed Gust Speed Precip Events Conditions
12:20 AM 77.0 °F - 68.0 °F 74% 29.86 in 6.2 mi Variable 1.2 mph - N/A   Scattered Clouds
12:50 AM 77.0 °F - 68.0 °F 74% 29.86 in 6.2 mi Calm Calm - N/A   Scattered Clouds
1:50 AM 77.0 °F - 68.0 °F 74% 29.86 in 6.2 mi SSW 3.5 mph - N/A   Scattered Clouds
2:20 AM 77.0 °F - 68.0 °F 74% 29.86 in 6.2 mi Calm Calm - N/A   Scattered Clouds
2:50 AM 77.0 °F - 68.0 °F 74% 29.86 in 6.2 mi Variable 1.2 mph - N/A   Scattered Clouds
3:00 AM 77 °F - 67 °F 65% 29.85 in 12 mi WSW 1.2 mph - -   Partly Cloudy
3:20 AM 77.0 °F - 68.0 °F 74% 29.83 in 6.2 mi Calm Calm - N/A   Scattered Clouds
3:50 AM 77.0 °F - 68.0 °F 74% 29.83 in 6.2 mi Calm Calm - N/A   Mostly Cloudy
4:20 AM 77.0 °F - 68.0 °F 74% 29.83 in 6.2 mi SSW 1.2 mph - N/A   Mostly Cloudy
4:50 AM 77.0 °F - 68.0 °F 74% 29.83 in 6.2 mi Calm Calm - N/A   Mostly Cloudy
5:20 AM 77.0 °F - 66.2 °F 69% 29.83 in 6.2 mi SW 3.5 mph - N/A   Mostly Cloudy
5:50 AM 77.0 °F - 66.2 °F 69% 29.83 in 6.2 mi WSW 5.8 mph - N/A   Mostly Cloudy
6:20 AM 77.0 °F - 66.2 °F 69% 29.86 in 6.2 mi SW 4.6 mph - N/A   Mostly Cloudy
6:50 AM 77.0 °F - 68.0 °F 74% 29.83 in 6.2 mi SSW 4.6 mph - N/A   Mostly Cloudy
7:20 AM 77.0 °F - 68.0 °F 74% 29.83 in 6.2 mi SW 3.5 mph 16.1 mph N/A   Mostly Cloudy
7:50 AM 77.0 °F - 66.2 °F 69% 29.83 in 6.2 mi SW 4.6 mph - N/A   Mostly Cloudy
8:20 AM 78.8 °F - 68.0 °F 69% 29.83 in 6.2 mi Variable 5.8 mph - N/A   Mostly Cloudy
8:50 AM 78.8 °F - 69.8 °F 74% 29.83 in 6.2 mi WNW 5.8 mph - N/A   Mostly Cloudy
9:00 AM 80 °F - 69 °F 63% 29.85 in 12 mi WNW 5.8 mph - -   Partly Cloudy
9:20 AM 80.6 °F 83.9 °F 69.8 °F 70% 29.83 in 6.2 mi NW 6.9 mph - N/A   Mostly Cloudy
9:50 AM 80.6 °F 84.6 °F 71.6 °F 74% 29.83 in 6.2 mi NW 6.9 mph - N/A   Mostly Cloudy
10:20 AM 78.8 °F - 69.8 °F 74% 29.83 in 6.2 mi NW 8.1 mph - N/A   Mostly Cloudy
10:50 AM 78.8 °F - 69.8 °F 74% 29.83 in 6.2 mi NW 5.8 mph - N/A   Mostly Cloudy
11:20 AM 78.8 °F - 71.6 °F 78% 29.83 in 6.2 mi NNW 6.9 mph - N/A   Mostly Cloudy
11:50 AM 78.8 °F - 71.6 °F 78% 29.83 in 6.2 mi NNW 6.9 mph - N/A   Mostly Cloudy
12:20 PM 80.6 °F 84.6 °F 71.6 °F 74% 29.83 in 6.2 mi NNW 8.1 mph - N/A   Mostly Cloudy
12:50 PM 78.8 °F - 71.6 °F 78% 29.83 in 6.2 mi NNW 6.9 mph - N/A   Mostly Cloudy
1:20 PM 78.8 °F - 71.6 °F 78% 29.83 in 6.2 mi NNW 6.9 mph - N/A   Mostly Cloudy
1:50 PM 80.6 °F 84.6 °F 71.6 °F 74% 29.83 in 6.2 mi NNW 6.9 mph - N/A   Mostly Cloudy
2:20 PM 78.8 °F - 71.6 °F 78% 29.83 in 6.2 mi NW 8.1 mph - N/A   Mostly Cloudy
2:50 PM 80.6 °F 83.9 °F 69.8 °F 70% 29.83 in 6.2 mi NW 6.9 mph - N/A   Mostly Cloudy
3:00 PM 80 °F - 70 °F 64% 29.84 in 12 mi NW 6.9 mph - -   Mostly Cloudy
3:20 PM 80.6 °F 84.6 °F 71.6 °F 74% 29.83 in 6.2 mi NW 6.9 mph - N/A   Mostly Cloudy
3:50 PM 80.6 °F 83.9 °F 69.8 °F 70% 29.83 in 6.2 mi NNW 5.8 mph - N/A   Mostly Cloudy
4:20 PM 80.6 °F 83.9 °F 69.8 °F 70% 29.83 in 6.2 mi NNW 4.6 mph - N/A   Mostly Cloudy
4:50 PM 78.8 °F - 69.8 °F 74% 29.83 in 6.2 mi NNW 4.6 mph - N/A   Mostly Cloudy
5:20 PM 78.8 °F - 68.0 °F 69% 29.83 in 6.2 mi Variable 4.6 mph - N/A   Mostly Cloudy
5:50 PM 78.8 °F - 69.8 °F 74% 29.83 in 6.2 mi NNW 3.5 mph - N/A   Mostly Cloudy
6:20 PM 78.8 °F - 69.8 °F 74% 29.83 in 6.2 mi Variable 2.3 mph - N/A   Mostly Cloudy
6:50 PM 78.8 °F - 69.8 °F 74% 29.83 in 6.2 mi Variable 1.2 mph - N/A   Mostly Cloudy
7:20 PM 78.8 °F - 69.8 °F 74% 29.83 in 6.2 mi Calm Calm - N/A   Mostly Cloudy
7:50 PM 78.8 °F - 68.0 °F 69% 29.83 in 6.2 mi Calm Calm - N/A   Mostly Cloudy
8:20 PM 78.8 °F - 69.8 °F 74% 29.83 in 6.2 mi Calm Calm - N/A   Mostly Cloudy
8:50 PM 78.8 °F - 69.8 °F 74% 29.83 in 6.2 mi Calm Calm - N/A   Mostly Cloudy
9:00 PM 78 °F - 69 °F 68% 29.84 in 12 mi Calm Calm - -   Mostly Cloudy
9:20 PM 78.8 °F - 69.8 °F 74% 29.83 in 6.2 mi Variable 1.2 mph - N/A   Mostly Cloudy
9:50 PM 78.8 °F - 69.8 °F 74% 29.83 in 6.2 mi NW 3.5 mph - N/A   Mostly Cloudy
10:20 PM 77.0 °F - 69.8 °F 78% 29.86 in 6.2 mi WNW 3.5 mph - N/A   Mostly Cloudy
10:50 PM 77.0 °F - 69.8 °F 78% 29.86 in 6.2 mi Calm Calm - N/A   Mostly Cloudy
11:20 PM 77.0 °F - 69.8 °F 78% 29.86 in 6.2 mi West 5.8 mph - N/A   Mostly Cloudy
11:50 PM 77.0 °F - 69.8 °F 78% 29.86 in 6.2 mi SW 3.5 mph - N/A   Mostly Cloudy